Chicago, Illinois, United States (60601)
Lat: 41.85N, Lon: 87.65W
Wx Zone: ILZ014
Local Info
Past Weather Observations for Tuesday, August 19, 2014

NOTE: This archive is for the closest National Weather Service station to Chicago. Information may differ from the station used for current weather conditions.

Click here for Long-term Archive

Time Weather Temperature Dewpoint Humidity Pressure Winds Precip Visibility
23:51
Clear
73°F / 23°C 64°F / 18°C 74% 29.8 in
(1009 mb)
W 5.8 mph
(W 9 kph)
- 10SM
22:51
Clear
75°F / 24°C 64°F / 18°C 69% 29.77 in
(1008 mb)
SSW 4.6 mph
(SSW 7 kph)
- 10SM
21:51
Partly Cloudy
77°F / 25°C 64°F / 18°C 65% 29.77 in
(1008 mb)
W 5.8 mph
(W 9 kph)
- 10SM
20:51
Partly Cloudy
81°F / 27°C 66°F / 19°C 62% 29.77 in
(1008 mb)
WNW 5.8 mph
(WNW 9 kph)
- 10SM
19:51
Partly Cloudy
81°F / 27°C 68°F / 20°C 66% 29.74 in
(1007 mb)
SW 5.8 mph
(SW 9 kph)
- 10SM
18:51
Mostly Cloudy
81°F / 27°C 68°F / 20°C 66% 29.71 in
(1006 mb)
SW 9.2 mph
(SW 15 kph)
- 10SM
17:51
Partly Cloudy
82°F / 28°C 66°F / 19°C 58% 29.71 in
(1006 mb)
SW 10.4 mph
(SW 17 kph)
- 10SM
16:51
Partly Cloudy
84°F / 29°C 64°F / 18°C 51% 29.71 in
(1006 mb)
SW 10.4 mph
(SW 17 kph)
- 10SM
15:51
Partly Cloudy
84°F / 29°C 63°F / 17°C 48% 29.71 in
(1006 mb)
SW 15 mph
(SW 24 kph)
- 10SM
14:51
Mostly Cloudy
84°F / 29°C 63°F / 17°C 48% 29.71 in
(1006 mb)
SSW 15 mph
(SSW 24 kph)
- 10SM
13:51
Mostly Cloudy
82°F / 28°C 68°F / 20°C 62% 29.71 in
(1006 mb)
SSW 13.8 mph
(SSW 22 kph)
- 10SM
12:51
Overcast
79°F / 26°C 72°F / 22°C 79% 29.74 in
(1007 mb)
SSW 17.3 mph
(SSW 28 kph)
0.01 in
(0.25 mm)
10SM
11:51
Overcast
Light Rain
75°F / 24°C 70°F / 21°C 83% 29.71 in
(1006 mb)
SSW 24.2 mph
(SSW 39 kph)
0.11 in
(2.79 mm)
5SM
11:44
Overcast
Light Rain
75°F / 24°C 72°F / 22°C 89% 29.71 in
(1006 mb)
SSW 25.3 mph
(SSW 41 kph)
0.11 in
(2.79 mm)
4SM
11:27
Overcast
Thunder Storms
81°F / 27°C 72°F / 22°C 74% 29.71 in
(1006 mb)
SW 23 mph
(SW 37 kph)
0.05 in
(1.27 mm)
3SM
11:20
Overcast
81°F / 27°C 72°F / 22°C 74% 29.71 in
(1006 mb)
SW 19.6 mph
(SW 32 kph)
- 8SM
10:51
Overcast
82°F / 28°C 72°F / 22°C 70% 29.71 in
(1006 mb)
SW 16.1 mph
(SW 26 kph)
- 10SM
10:38
Overcast
82°F / 28°C 72°F / 22°C 70% 29.74 in
(1007 mb)
SW 15 mph
(SW 24 kph)
- 10SM
10:01
Overcast
81°F / 27°C 72°F / 22°C 74% 29.74 in
(1007 mb)
SW 16.1 mph
(SW 26 kph)
- 10SM
09:51
Overcast
82°F / 28°C 72°F / 22°C 70% 29.74 in
(1007 mb)
SW 18.4 mph
(SW 30 kph)
- 10SM
08:51
Mostly Cloudy
82°F / 28°C 72°F / 22°C 70% 29.74 in
(1007 mb)
SW 20.7 mph
(SW 33 kph)
- 10SM
07:51
Mostly Cloudy
79°F / 26°C 70°F / 21°C 74% 29.74 in
(1007 mb)
SW 15 mph
(SW 24 kph)
0.00 in
(0.00 mm)
10SM
06:51
Mostly Cloudy
Light Rain
75°F / 24°C 70°F / 21°C 83% 29.74 in
(1007 mb)
SSE 10.4 mph
(SSE 17 kph)
0.01 in
(0.25 mm)
9SM
05:51
Overcast
73°F / 23°C 70°F / 21°C 89% 29.77 in
(1008 mb)
SSE 8.1 mph
(SSE 13 kph)
- 9SM
04:51
Mostly Cloudy
73°F / 23°C 70°F / 21°C 89% 29.74 in
(1007 mb)
SSE 8.1 mph
(SSE 13 kph)
- 9SM
03:51
Mostly Cloudy
73°F / 23°C 70°F / 21°C 89% 29.74 in
(1007 mb)
SSE 11.5 mph
(SSE 19 kph)
- 10SM
02:51
Partly Cloudy
73°F / 23°C 70°F / 21°C 89% 29.74 in
(1007 mb)
SW 9.2 mph
(SW 15 kph)
- 10SM
01:51
Mostly Cloudy
73°F / 23°C 70°F / 21°C 89% 29.77 in
(1008 mb)
SW 8.1 mph
(SW 13 kph)
- 10SM
00:51
Partly Cloudy
73°F / 23°C 68°F / 20°C 83% 29.74 in
(1007 mb)
S 9.2 mph
(S 15 kph)
- 10SM
Time Weather Temperature Dewpoint Humidity Pressure Winds Precip Visibility


Weather for websites

WeatherForYou.com, LLC is not responsible for any damages or problems caused by this service. Current weather conditions are obtained from the closest station including government and personal stations which may have varying degrees of accuracy. Weather forecasts are derived from the NOAA NDFD. Like all things, this site belongs to Jesus Christ... He just trusts me to maintain it. If you have any questions or comments email webmaster@weatherforyou.com

Copyright © 2014, WeatherForYou.com LLC. All rights reserved.